This is the latest recevied weather packets stored in our database for station/object WA4IKQ. If no packets are shown the sender has not sent any weather packets the latest 10 day(s).
| Time | Temp. | Humidity | Pressure | Rain* | Wind** | Luminosity | Snow |
|---|---|---|---|---|---|---|---|
| 1787412958 | 31.67° C | 63% | 1017.8 hPa | 0 mm | 1.79 m/s, 138° | - | - |
| 1787412735 | 31.11° C | 65% | 1017.7 hPa | 0 mm | 1.79 m/s, 117° | - | - |
| 1787412658 | 31.11° C | 65% | 1017.7 hPa | 0 mm | 1.79 m/s, 117° | - | - |
| 1787412455 | 31.67° C | 66% | 1017.7 hPa | 0 mm | 1.34 m/s, 181° | - | - |
| 1787412359 | 31.67° C | 66% | 1017.7 hPa | 0 mm | 1.34 m/s, 181° | - | - |
| 1787411586 | 31.67° C | 66% | 1017.7 hPa | 0 mm | 0.89 m/s, 242° | - | - |
| 1787411457 | 31.67° C | 66% | 1017.7 hPa | 0 mm | 0.89 m/s, 242° | - | - |
| 1787411289 | 31.11° C | 66% | 1017.8 hPa | 0 mm | 0.89 m/s, 179° | - | - |
| 1787411157 | 31.11° C | 66% | 1017.8 hPa | 0 mm | 0.89 m/s, 179° | - | - |
| 1787410658 | 31.11° C | 69% | 1017.8 hPa | 0 mm | 0.89 m/s, 259° | - | - |
| 1787410565 | 31.11° C | 69% | 1017.8 hPa | 0 mm | 0.89 m/s, 259° | - | - |
| 1787410378 | 31.11° C | 68% | 1017.7 hPa | 0 mm | 0.89 m/s, 190° | - | - |
| 1787410258 | 31.11° C | 68% | 1017.7 hPa | 0 mm | 0.89 m/s, 190° | - | - |
| 1787410066 | 31.11° C | 68% | 1017.8 hPa | 0 mm | 0 m/s | - | - |
| 1787409956 | 31.11° C | 68% | 1017.8 hPa | 0 mm | 0 m/s | - | - |
| 1787409192 | 30.56° C | 70% | 1017.7 hPa | 0 mm | 2.24 m/s, 190° | - | - |
| 1787409057 | 30.56° C | 70% | 1017.7 hPa | 0 mm | 2.24 m/s, 190° | - | - |
| 1787408926 | 30.56° C | 70% | 1017.7 hPa | 0 mm | 1.79 m/s, 163° | - | - |
| 1787408757 | 30.56° C | 70% | 1017.7 hPa | 0 mm | 1.79 m/s, 163° | - | - |
| 1787408583 | 30.56° C | 72% | 1017.7 hPa | 0 mm | 1.34 m/s, 173° | - | - |
| 1787408457 | 30.56° C | 72% | 1017.7 hPa | 0 mm | 1.34 m/s, 173° | - | - |
| 1787407974 | 30° C | 73% | 1017.6 hPa | 0 mm | 1.79 m/s, 167° | - | - |
| 1787407855 | 30° C | 73% | 1017.6 hPa | 0 mm | 1.79 m/s, 167° | - | - |
| 1787407666 | 29.44° C | 75% | 1017.5 hPa | 0 mm | 0.89 m/s, 269° | - | - |
| 1787407555 | 29.44° C | 75% | 1017.5 hPa | 0 mm | 0.89 m/s, 269° | - | - |
* Rain latest hour (hover to see other rain measurements)
** Current wind speed in m/s (hover to see current wind gust speed)